Exeter, United Kingdom

10:18 PM BST on April 30, 2017 (GMT +0100)
Exeter

Weather History for EGTE - January, 2014

Change the Weather History Date:

Thursday, January 9, 2014

  Actual Average Record
Temperature  
Mean Temperature 44 °F -  
Max Temperature 50 °F 46 °F 61 °F (2015)
Min Temperature 37 °F 36 °F 24 °F (2009)
Degree Days  
Heating Degree Days 22    
Moisture  
Dew Point 41 °F    
Average Humidity 82    
Maximum Humidity 100    
Minimum Humidity 62    
Precipitation  
Precipitation 0.03 in - - ()
Sea Level Pressure  
Sea Level Pressure 29.81 in    
Wind  
Wind Speed 12 mph ()    
Max Wind Speed 24 mph    
Max Gust Speed -    
Visibility 6.2 miles    
Events Rain    
Averages and records for this station are not official NWS values.
T = Trace of Precipitation, MM = Missing Value Source: Averaged Metar Reports

Daily Weather History Graph

Daily Weather History Graph

Search for Another Location

Airport or City:

Trip Planner

Search our weather history database for the weather conditions in past years. The results will help you decide how hot, cold, wet, or windy it might be!

Date:

Astronomy

Jan. 09, 2014 Rise Set
Actual Time 8:13 AM GMT 4:28 PM GMT
Civil Twilight 7:34 AM GMT 5:06 PM GMT
Nautical Twilight 6:53 AM GMT 5:48 PM GMT
Astronomical Twilight 6:13 AM GMT 6:28 PM GMT
Moon 12:03 PM GMT (1/9) 1:47 AM GMT (1/9)
Length of Visible Light 9h 32m
Length of Day
8h 15m
Waxing Gibbous, 64% of the Moon is Illuminated
Jan 9
Waxing Gibbous
Jan 16
Full
Jan 24
Last Quarter
Jan 30
New
Feb 6
First Quarter

Hourly Weather History & Observations

Time (GMT) Temp. Windchill Dew Point Humidity Pressure Visibility Wind Dir Wind Speed Gust Speed Precip Events Conditions
12:00 AM 53 °F - 49 °F 80%  in - Calm Calm - -  
12:20 AM 51.8 °F - 48.2 °F 88% 29.59 in 6.2 mi SSW 20.7 mph - N/A   Mostly Cloudy
12:50 AM 51.8 °F - 46.4 °F 82% 29.59 in 6.2 mi SSW 19.6 mph - N/A   Mostly Cloudy
1:00 AM 53 °F - 47 °F 73%  in - Calm Calm - -  
1:20 AM 51.8 °F - 46.4 °F 82% 29.56 in 6.2 mi SSW 24.2 mph - N/A   Scattered Clouds
1:50 AM 50.0 °F - 44.6 °F 82% 29.56 in 6.2 mi SW 19.6 mph - N/A   Mostly Cloudy
2:00 AM 51 °F - 45 °F 73%  in - Calm Calm - -  
3:00 AM 51 °F - 47 °F 82%  in - Calm Calm - -  
4:00 AM 50 °F - 45 °F 77%  in - Calm Calm - -  
5:00 AM 48 °F - 42 °F 74%  in - Calm Calm - -  
6:00 AM 47 °F - 43 °F 82%  in - Calm Calm - -  
6:20 AM 48.2 °F - 42.8 °F 82% 29.62 in 4.3 mi WSW 10.4 mph - N/A Rain Light Rain Showers
6:50 AM 46.4 °F 41.1 °F 44.6 °F 93% 29.65 in 6.2 mi WNW 11.5 mph - N/A   Mostly Cloudy
7:00 AM 47 °F - 44 °F 85%  in - Calm Calm - -  
7:20 AM 44.6 °F 38.1 °F 42.8 °F 93% 29.65 in 6.2 mi NW 13.8 mph - N/A   Scattered Clouds
7:50 AM 44.6 °F 39.2 °F 42.8 °F 93% 29.68 in 6.2 mi WNW 10.4 mph - N/A   Scattered Clouds
8:00 AM 45 °F - 42 °F 85%  in - Calm Calm - -  
8:20 AM 44.6 °F 39.2 °F 42.8 °F 93% 29.71 in 6.2 mi WNW 10.4 mph - N/A   Scattered Clouds
8:50 AM 44.6 °F 38.4 °F 42.8 °F 93% 29.74 in 6.2 mi WNW 12.7 mph - N/A   Scattered Clouds
9:00 AM 46 °F - 42 °F 82%  in - Calm Calm - -  
9:20 AM 44.6 °F 40.7 °F 42.8 °F 93% 29.77 in 6.2 mi NW 6.9 mph - N/A   Scattered Clouds
9:50 AM 44.6 °F 39.7 °F 42.8 °F 93% 29.77 in 6.2 mi WNW 9.2 mph - N/A   Scattered Clouds
10:00 AM 46 °F - 43 °F 85%  in - Calm Calm - -  
10:20 AM 46.4 °F 40.4 °F 42.8 °F 87% 29.80 in 6.2 mi West 13.8 mph - N/A   Scattered Clouds
10:50 AM 46.4 °F 40.4 °F 41.0 °F 81% 29.83 in 6.2 mi WNW 13.8 mph - N/A   Partly Cloudy
11:00 AM 47 °F - 42 °F 75%  in - Calm Calm - -  
11:20 AM 48.2 °F - 41.0 °F 76% 29.83 in 6.2 mi WNW 12.7 mph - N/A   Partly Cloudy
11:50 AM 48.2 °F - 41.0 °F 76% 29.83 in 6.2 mi WNW 13.8 mph - N/A   Partly Cloudy
12:00 PM 48 °F - 40 °F 66%  in - Calm Calm - -  
12:20 PM 48.2 °F - 39.2 °F 71% 29.83 in 6.2 mi WNW 15.0 mph - N/A   Partly Cloudy
12:50 PM 46.4 °F 41.5 °F 39.2 °F 76% 29.83 in 6.2 mi West 10.4 mph - N/A   Partly Cloudy
1:00 PM 47 °F - 40 °F 69%  in - Calm Calm - -  
1:20 PM 48.2 °F - 39.2 °F 71% 29.83 in 6.2 mi WNW 13.8 mph - N/A   Partly Cloudy
1:50 PM 50.0 °F - 41.0 °F 71% 29.83 in 6.2 mi WNW 11.5 mph - N/A   Partly Cloudy
2:00 PM 49 °F - 41 °F 65%  in - Calm Calm - -  
2:20 PM 50.0 °F - 41.0 °F 71% 29.83 in 6.2 mi WNW 15.0 mph - N/A   Partly Cloudy
2:50 PM 48.2 °F - 41.0 °F 76% 29.86 in 6.2 mi WNW 10.4 mph - N/A   Partly Cloudy
3:00 PM 49 °F - 40 °F 62%  in - Calm Calm - -  
3:20 PM 48.2 °F - 39.2 °F 71% 29.86 in 6.2 mi WNW 5.8 mph - N/A   Partly Cloudy
3:50 PM 46.4 °F 41.5 °F 39.2 °F 76% 29.86 in 6.2 mi West 10.4 mph - N/A   Scattered Clouds
4:00 PM 47 °F - 39 °F 65%  in - Calm Calm - -  
4:20 PM 46.4 °F 42.4 °F 39.2 °F 76% 29.86 in 6.2 mi West 8.1 mph - N/A Rain Rain Showers
4:50 PM 44.6 °F 40.2 °F 41.0 °F 87% 29.89 in 6.2 mi West 8.1 mph - N/A   Scattered Clouds
5:00 PM 44 °F - 40 °F 79%  in - Calm Calm - -  
5:20 PM 42.8 °F 40.1 °F 39.2 °F 87% 29.89 in 6.2 mi WSW 4.6 mph - N/A   Scattered Clouds
5:50 PM 42.8 °F - 39.2 °F 87% 29.89 in 6.2 mi South 2.3 mph - N/A   Partly Cloudy
6:00 PM 40 °F - 38 °F 89%  in - Calm Calm - -  
6:20 PM 41.0 °F 37.1 °F 37.4 °F 87% 29.89 in 6.2 mi SSW 5.8 mph - N/A   Partly Cloudy
6:50 PM 41.0 °F 35.8 °F 39.2 °F 93% 29.89 in 6.2 mi SSW 8.1 mph - N/A   Partly Cloudy
7:00 PM 42 °F - 38 °F 83%  in - Calm Calm - -  
7:20 PM 41.0 °F 36.4 °F 37.4 °F 87% 29.92 in 6.2 mi SW 6.9 mph - N/A   Partly Cloudy
7:50 PM 39.2 °F 37.0 °F 37.4 °F 93% 29.92 in 6.2 mi Variable 3.5 mph - N/A   Partly Cloudy
8:50 PM 39.2 °F 35.0 °F 37.4 °F 93% 29.92 in 6.2 mi South 5.8 mph - N/A   Partly Cloudy
9:20 PM 37.4 °F 33.8 °F 37.4 °F 100% 29.95 in 6.2 mi Variable 4.6 mph - N/A   Partly Cloudy
9:50 PM 37.4 °F 33.8 °F 37.4 °F 100% 29.95 in 6.2 mi SSW 4.6 mph - N/A   Partly Cloudy
10:20 PM 37.4 °F 32.1 °F 35.6 °F 93% 29.95 in 6.2 mi South 6.9 mph - N/A   Partly Cloudy
11:20 PM 37.4 °F 32.1 °F 35.6 °F 93% 29.95 in 6.2 mi South 6.9 mph - N/A   Partly Cloudy
11:50 PM 37.4 °F 31.4 °F 37.4 °F 100% 29.95 in 6.2 mi South 8.1 mph - N/A   Partly Cloudy